Location: Moscow
(55.7500°N, 37.5830°E)
Time: 05:27:41
(UTC+03:00)

Vanguard 1 Rocket - Pass Details

Date: 01 December 2021
Orbit: 651 x 4225 km, 34.3° (Epoch: 26 January)

Event Time Altitude Azimuth Distance (km) Brightness Sun altitude
Exits shadow 05:37:43 13° 231° (SW) 4,923 10.7 -23.6°
Maximum altitude 05:50:49 38° 174° (S) 4,542 10.9 -21.7°
Drops below altitude 10° 06:11:48 10° 118° (ESE) 7,406 13.1 -18.8°
Sets 06:18:27 0° 112° (ESE) 8,457 14.0 -17.9°
